This demonstration page uses our WeatherBlox Daily Observations layout. Learn more.

Left ArrowRight Arrow

38.89511, -77.03637

Hourly Observations for May 13, 2017

Temp ( °F °C ) Dew Point ( °F °C ) Humidity (%) Winds ( mph kmh ) Pressure ( in mb ) Visibility ( mi km ) Precip ( " mm )
12:52 am 00:52 Cloudy with Rain 50 10 48 8.9 93 93 NE 9 15 29.93 1014 5 8 0.05 1.27
12:54 am 00:54 Cloudy with Rain 50 10 48 8.9 93 93 NE 8 13 29.94 1014 5 8 0.01 0.25
1:52 am 01:52 Cloudy with Rain 50 10 49 9.4 96 96 NNE 7 11 29.91 1013 5 8 0.09 2.29
2:31 am 02:31 Cloudy with Light Rain 50 10 49 9.4 96 96 NE 9 15 29.88 1012 6 10 0.07 1.78
2:52 am 02:52 Cloudy with Light Rain 50 10 49 9.4 96 96 NNE 7 11 29.88 1012 5 8 0.11 2.79
3:15 am 03:15 Cloudy with Light Rain 50 10 49 9.4 96 96 ENE 13 20 29.88 1012 5 8 0.03 0.76
3:52 am 03:52 Cloudy with Light Rain 50 10 49 9.4 96 96 NNE 12 19 29.85 1011 7 11 0.08 2.03
4:13 am 04:13 Cloudy with Light Rain 51 10.6 49 9.4 92 92 N 14 22 29.85 1011 7 11 0.02 0.51
4:30 am 04:30 Cloudy with Rain 51 10.6 49 9.4 92 92 N 12 19 29.85 1011 6 10 0.05 1.27
4:52 am 04:52 Cloudy with Rain 51 10.6 50 10 96 96 N 14 22 29.85 1011 5 8 0.09 2.29
5:07 am 05:07 Cloudy with Rain 51 10.6 50 10 96 96 NNW 13 20 29.85 1011 4 6 0.05 1.27
5:50 am 05:50 Cloudy with Light Rain 52 11 50 10 94 94 N 13 20 29.85 1011 9 14 0.14 3.56
5:52 am 05:52 Cloudy with Light Rain 51 10.6 50 10 96 96 N 12 19 29.84 1011 9 14 0.14 3.56
5:56 am 05:56 Cloudy with Light Rain 51 10.6 50 10 96 96 NNE 14 22 29.83 1010 5 8 0.00 0.03
6:05 am 06:05 Cloudy with Light Rain 51 10.6 49 9.4 92 92 NNE 14 22 29.83 1010 6 10 0.01 0.25
6:38 am 06:38 Cloudy 51 10.6 49 9.4 92 92 NNE 15 24 29.83 1010 9 14 0.01 0.25
6:52 am 06:52 Cloudy 51 10.6 49 9.4 92 92 NNE 14 22 29.83 1010 10 16 0.01 0.25
7:12 am 07:12 Cloudy 51 10.6 49 9.4 92 92 NNE 12 19 29.83 1010 10 16 0.00 0.00
7:52 am 07:52 Cloudy 52 11.1 49 9.4 89 89 NNE 13 20 29.83 1010 10 16 0.00 0.00
8:52 am 08:52 Cloudy 53 11.7 50 10 89 89 NNE 15 24 29.83 1010 10 16 0.00 0.00
9:09 am 09:09 Cloudy 53 11.7 50 10 89 89 NNE 14 22 29.83 1010 10 16 0.00 0.00
9:52 am 09:52 Cloudy 54 12.2 50 10 87 87 NNE 15 24 29.83 1010 10 16 0.00 0.00
9:59 am 09:59 Cloudy 54 12.2 50 10 87 87 N 13 20 29.83 1010 10 16 0.00 0.00
10:52 am 10:52 Cloudy 56 13.3 50 10 81 81 NNE 13 20 29.83 1010 10 16 0.00 0.00
11:52 am 11:52 Cloudy 56 13.3 52 11.1 87 87 N 13 20 29.82 1010 10 16 0.00 0.00
12:52 pm 12:52 Cloudy 56 13.3 51 10.6 84 84 NNW 15 24 29.81 1010 10 16 0.00 0.00
1:52 pm 13:52 Cloudy 57 13.9 51 10.6 81 81 NW 15 24 29.81 1009 10 16 0.00 0.00
2:52 pm 14:52 Cloudy 59 15 50 10 72 72 NNW 14 22 29.80 1009 10 16 0.00 0.00
3:52 pm 15:52 Cloudy 59 15 50 10 72 72 NNW 13 20 29.80 1009 10 16 0.00 0.00
4:52 pm 16:52 Cloudy 59 15 50 10 72 72 NW 16 26 29.80 1009 10 16 0.00 0.00
5:52 pm 17:52 Cloudy 59 15 50 10 72 72 NNW 16 26 29.81 1009 10 16 0.00 0.00
6:23 pm 18:23 Cloudy 59 15 49 9.4 69 69 N 13 20 29.80 1009 10 16 0.00 0.00
6:52 pm 18:52 Mostly Cloudy 59 15 49 9.4 69 69 NNW 15 24 29.80 1009 10 16 0.00 0.00
7:52 pm 19:52 Mostly Cloudy 58 14.4 48 8.9 70 70 N 14 22 29.82 1010 10 16 0.00 0.00
8:52 pm 20:52 Partly Cloudy 56 13.3 48 8.9 75 75 NNW 9 15 29.83 1010 10 16 0.00 0.00
9:52 pm 21:52 Mostly Clear 55 12.8 48 8.9 77 77 NNW 6 9 29.83 1010 10 16 0.00 0.00
10:52 pm 22:52 Mostly Cloudy 54 12.2 48 8.9 80 80 NNW 7 11 29.84 1010 10 16 0.00 0.00
11:52 pm 23:52 Mostly Cloudy 53 11.7 48 8.9 83 83 NNW 6 9 29.84 1011 10 16 0.00 0.00

Powered by AerisWeather